Location: Vale
(35.4830°N, 81.3830°W)
Time: 14:20:29
(UTC-04:00)

SR - All Passes

Search period start: 23 September 2014 00:00
Search period end: 03 October 2014 00:00
Orbit: 575 x 890 km, 66.7° (Epoch: 09 September)

Date Brightness Start Highest point End Pass type
(mag) Time Alt. Az. Time Alt. Az. Time Alt. Az.
23 Sep - 00:00:00 22° NW 23:59:45 22° NW 00:04:10 10° N visible
23 Sep - 06:57:17 10° N 07:01:52 25° NE 07:06:09 10° ESE daylight
23 Sep - 08:39:01 10° NW 08:44:17 43° WSW 08:49:05 10° S daylight
23 Sep - 21:24:09 10° SSE 21:28:59 30° ESE 21:34:02 10° NE night (unlit)
23 Sep - 23:05:44 10° WSW 23:11:02 38° NW 23:16:33 10° NNE visible
24 Sep - 06:10:13 10° NNE 06:13:03 14° NE 06:15:48 10° ENE visible
24 Sep - 07:50:30 10° NNW 07:56:09 90° WSW 08:01:17 10° SSE daylight
24 Sep - 20:38:05 10° SE 20:41:07 15° ESE 20:44:14 10° ENE night (unlit)
24 Sep - 22:16:56 10° SW 22:22:36 71° WNW 22:28:34 10° NNE night (unlit)
25 Sep - 00:03:37 10° WNW 00:05:55 12° NW 00:08:14 10° NNW visible
25 Sep - 07:02:23 10° NNW 07:07:48 46° ENE 07:12:46 10° SE daylight
25 Sep - 08:45:36 10° WNW 08:49:32 20° WSW 08:53:14 10° SSW daylight
25 Sep - 21:28:49 10° SSW 21:34:22 61° ESE 21:40:13 10° NE visible
25 Sep - 23:12:42 10° W 23:17:03 21° NW 23:21:30 10° N visible
26 Sep - 06:14:38 10° N 06:19:13 25° NE 06:23:31 10° ESE visible
26 Sep - 07:56:25 10° NW 08:01:37 42° WSW 08:06:22 10° S daylight
26 Sep - 20:41:26 10° SSE 20:46:19 31° ESE 20:51:26 10° NE visible
26 Sep - 22:23:06 10° WSW 22:28:24 37° NW 22:33:54 10° N visible
27 Sep - 05:27:33 10° NNE 05:30:25 14° NE 05:33:12 10° ENE visible
27 Sep - 07:07:53 10° NNW 07:13:30 88° WSW 07:18:35 10° SSE daylight
27 Sep - 19:55:18 10° SE 19:58:27 15° ESE 20:01:41 10° ENE visible
27 Sep - 21:34:16 10° SW 21:39:57 70° WNW 21:45:55 10° NNE visible
27 Sep - 23:21:04 10° WNW 23:23:17 12° NW 23:25:30 10° NNW visible
28 Sep - 06:19:44 10° NNW 06:25:08 47° ENE 06:30:05 10° SE visible
28 Sep - 08:03:01 10° WNW 08:06:50 20° WSW 08:10:27 10° SSW daylight
28 Sep - 20:46:07 10° SSW 20:51:42 62° ESE 20:57:35 10° NNE visible
28 Sep - 22:30:05 10° W 22:34:24 21° NW 22:38:50 10° N visible
29 Sep - 05:31:58 10° N 05:36:34 25° NE 05:40:51 10° ESE visible
29 Sep - 07:13:47 10° NW 07:18:56 41° WSW 07:23:38 10° S daylight
29 Sep - 19:58:42 10° SSE 20:03:39 32° ESE 20:08:48 10° NE visible
29 Sep - 21:40:27 10° WSW 21:45:44 37° NW 21:51:14 10° N visible
30 Sep - 04:44:51 10° NNE 04:47:45 14° NE 04:50:33 10° ENE visible
30 Sep - 06:25:14 10° NNW 06:30:49 86° WSW 06:35:52 10° SSE visible
30 Sep - 19:12:29 10° SE 19:15:46 16° ESE 19:19:07 10° ENE daylight
30 Sep - 20:51:35 10° SW 20:57:17 68° WNW 21:03:15 10° NNE visible
30 Sep - 22:38:31 10° WNW 22:40:37 12° NW 22:42:45 10° NNW visible
01 Oct - 05:37:04 10° NNW 05:42:28 47° ENE 05:47:22 10° SE visible
01 Oct - 07:20:25 10° WNW 07:24:08 19° WSW 07:27:39 10° SSW daylight
01 Oct - 20:03:24 10° SSW 20:09:01 64° ESE 20:14:55 10° NNE visible
01 Oct - 21:47:26 10° W 21:51:44 21° NW 21:56:08 10° N visible
02 Oct - 04:49:17 10° N 04:53:53 25° NE 04:58:09 10° ESE visible
02 Oct - 06:31:08 10° NW 06:36:13 40° WSW 06:40:52 10° S visible
02 Oct - 19:15:57 10° S 19:20:57 32° ESE 19:26:09 10° NE daylight
02 Oct - 20:57:46 10° WSW 21:03:04 36° NW 21:08:33 10° N visible
